Regional Weather Roundup
Issued by NWS Cleveland, OH

Home | Current Version | Previous Version | Text Only | Print | Product List | Glossary On
Versions: 1 2 3 4 5 6 7 8 9 10 11 12 13 14 15 16 17 18 19 20 21 22 23 24 25 26 27 28 29 30 31 32 33 34 35 36 37 38 39 40 41 42 43 44 45 46 47 48 49 50
000
ASUS41 KCLE 171110
RWRCLE
OHIO REGIONAL WEATHER ROUNDUP
NATIONAL WEATHER SERVICE WILMINGTON, OH
700 AM EDT WED SEP 17 2014

NOTE: "FAIR" INDICATES FEW OR NO CLOUDS BELOW 12,000 FEET WITH NO
SIGNIFICANT WEATHER AND/OR OBSTRUCTIONS TO VISIBILITY.

OHZ001>008-015>018-024>027-034-035-043-044-171200-
   NORTHWEST OHIO

CITY           SKY/WX    TMP DP  RH WIND       PRES   REMARKS
DEFIANCE       FOG       42  40  92 CALM      30.08S VSB 1
FINDLAY        PTCLDY    44  42  93 CALM      30.07R FOG
TOLEDO EXPRESS CLEAR     43  41  93 CALM      30.07S
TOLEDO METCALF CLEAR     46  42  86 W3        30.08S
LIMA           CLEAR     45  42  89 CALM      30.07S FOG
$$

OHZ009>014-019>023-028>033-038-089-171200-
   NORTHEAST OHIO

CITY           SKY/WX    TMP DP  RH WIND       PRES   REMARKS
CLE-HOPKINS    PTCLDY    45  42  89 S3        30.09R
CLE-LAKEFRONT  PTCLDY    50  46  86 S8        30.06R
CUY CO. ARPT   PTCLDY    50  46  87 S5        30.07
LORAIN-ELYRIA  CLEAR     48  43  82 SW5       30.08S
ASHTABULA      MOCLDY    47  45  93 CALM      30.07S
AKRON-CANTON   CLOUDY    51  47  86 CALM      30.07S
WOOSTER        CLOUDY    45  43  93 CALM      30.08S FOG
MANSFIELD      CLOUDY    48  47  96 SW3       30.08R
YOUNGSTOWN     PTCLDY    44  43  96 CALM      30.07S
$$

OHZ042-051>053-060>062-070>072-077>081-171200-
  SOUTHWEST OHIO

CITY           SKY/WX    TMP DP  RH WIND       PRES   REMARKS
CINC-COVINGTON MOCLDY    52  48  86 CALM      30.07S
CINC-LUNKEN    CLOUDY    50  49  96 CALM      30.09S
HAMILTON       CLOUDY    50  49  96 CALM      30.09S FOG
DAYTON         MOCLDY    48  47  96 CALM      30.08F
WRIGHT-PAT AFB CLOUDY    48  46  93 CALM      30.08S FOG
DAYTON GENERAL CLOUDY    51  49  92 NE3       30.07S
WILMINGTON     CLOUDY    50  48  93 NE3       30.07S
$$

OHZ036-037-039>041-045>050-054>059-063>069-073>076-082>088-171200-
  CENTRAL AND SOUTHEAST OHIO

CITY           SKY/WX    TMP DP  RH WIND       PRES   REMARKS
COLUMBUS       CLOUDY    54  48  80 CALM      30.07S
OSU AIRPORT    CLOUDY    50  47  89 CALM      30.08R
BOLTON FIELD   CLOUDY    48  48 100 CALM      30.08R FOG
RICKENBACK AFB CLOUDY    48  47  96 CALM      30.07S
NEWARK         CLOUDY    49  47  93 CALM      30.07S
MARION         CLOUDY    44  41  89 CALM      30.08S
LANCASTER      CLOUDY    50  48  93 CALM      30.07S FOG
ZANESVILLE     PTCLDY    46  43  89 CALM      30.07S FOG
NEW PHILLY     FOG       47  47 100 CALM      30.08S VSB 1/4
$$


USA.gov is the U.S. government's official web portal to all federal, state and local government web resources and services.